Minot, ND

1:10 AM CST on November 17, 2019 (GMT -0600)
Minot International

Weather History for KMOT - October, 2019

Change the Weather History Date:

Monday, October 21, 2019

  Actual Average Record
Temperature  
Mean Temperature 39 °F 42 °F  
Max Temperature 47 °F 53 °F 84 °F (1927)
Min Temperature 31 °F 32 °F 10 °F (1930)
Degree Days  
Heating Degree Days 26 23  
Month to date heating degree days 466 384  
Since 1 July heating degree days 710 704  
Cooling Degree Days 0 0  
Month to date cooling degree days 0 0  
Year to date cooling degree days 459 444  
Moisture  
Dew Point 30 °F    
Average Humidity 69    
Maximum Humidity 85    
Minimum Humidity 53    
Precipitation  
Precipitation 0.00 in 0.03 in 0.53 in (2008)
Month to date precipitation 0.98 0.86  
Year to date precipitation 20.44 15.76  
Sea Level Pressure  
Sea Level Pressure 29.96 in    
Wind  
Wind Speed 12 mph (NW)    
Max Wind Speed 21 mph    
Max Gust Speed 29 mph    
Visibility 10 miles    
Events      
T = Trace of Precipitation, MM = Missing Value Source: NWS Daily Summary

Daily Weather History Graph

Daily Weather History Graph

Search for Another Location

Airport or City:

Astronomy

Oct. 21, 2019 Rise Set
Actual Time 8:13 AM CDT 6:45 PM CDT
Civil Twilight 7:41 AM CDT 7:16 PM CDT
Nautical Twilight 7:05 AM CDT 7:53 PM CDT
Astronomical Twilight 6:29 AM CDT 8:29 PM CDT
Moon No Moon Rise 3:49 PM CDT (10/21)
Length of Visible Light 11h 35m
Length of Day
10h 31m
Waning Gibbous, 48% of the Moon is Illuminated
Oct 21
Waning Gibbous
Oct 27
New
Nov 4
First Quarter
Nov 12
Full
Nov 19
Last Quarter

Hourly Weather History & Observations

Time (CDT) Temp. Windchill Dew Point Humidity Pressure Visibility Wind Dir Wind Speed Gust Speed Precip Events Conditions
12:54 AM 42.1 °F 36.1 °F 32.0 °F 67% 29.91 in 10.0 mi NNW 10.4 mph - N/A   Overcast
1:54 AM 41.0 °F 34.3 °F 30.9 °F 67% 29.90 in 10.0 mi NNW 11.5 mph - N/A   Partly Cloudy
2:54 AM 39.0 °F 32.8 °F 32.0 °F 76% 29.90 in 10.0 mi NNW 9.2 mph - N/A   Clear
3:54 AM 37.9 °F 30.9 °F 30.9 °F 76% 29.90 in 10.0 mi NNW 10.4 mph - N/A   Clear
4:54 AM 37.0 °F 29.8 °F 30.9 °F 79% 29.91 in 10.0 mi NW 10.4 mph - N/A   Clear
5:54 AM 35.1 °F 27.9 °F 30.0 °F 82% 29.94 in 10.0 mi NW 9.2 mph - N/A   Clear
7:54 AM 32.0 °F 23.0 °F 28.0 °F 85% 29.95 in 10.0 mi NW 11.5 mph - N/A   Clear
8:54 AM 32.0 °F 23.6 °F 28.0 °F 85% 29.96 in 10.0 mi NW 10.4 mph - N/A   Clear
9:54 AM 33.1 °F 24.4 °F 28.0 °F 82% 29.96 in 10.0 mi NW 11.5 mph - N/A   Clear
10:54 AM 37.0 °F 28.9 °F 30.0 °F 76% 29.98 in 10.0 mi NNW 12.7 mph - N/A   Clear
11:54 AM 41.0 °F 32.8 °F 32.0 °F 70% 29.97 in 10.0 mi NNW 16.1 mph - N/A   Partly Cloudy
12:54 PM 44.1 °F 35.9 °F 33.1 °F 65% 29.96 in 10.0 mi NNW 19.6 mph 25.3 mph N/A   Mostly Cloudy
1:54 PM 46.9 °F - 32.0 °F 56% 29.95 in 10.0 mi North 18.4 mph 27.6 mph N/A   Clear
2:54 PM 46.0 °F 39.3 °F 30.9 °F 56% 29.95 in 10.0 mi North 16.1 mph - N/A   Mostly Cloudy
3:54 PM 45.0 °F 37.6 °F 30.0 °F 56% 29.95 in 10.0 mi NNW 17.3 mph 24.2 mph N/A   Overcast
4:54 PM 45.0 °F 38.5 °F 28.9 °F 53% 29.97 in 10.0 mi NW 13.8 mph - N/A   Scattered Clouds
5:54 PM 44.1 °F 37.4 °F 28.0 °F 53% 29.98 in 10.0 mi NNW 13.8 mph - N/A   Mostly Cloudy
6:54 PM 37.0 °F 31.0 °F 28.0 °F 70% 29.99 in 10.0 mi NNW 8.1 mph - N/A   Clear
7:54 PM 35.1 °F 27.9 °F 28.0 °F 76% 30.00 in 10.0 mi WNW 9.2 mph - N/A   Clear
8:54 PM 34.0 °F 26.6 °F 27.0 °F 75% 30.00 in 10.0 mi WNW 9.2 mph - N/A   Clear
9:54 PM 32.0 °F 24.8 °F 27.0 °F 82% 30.00 in 10.0 mi NW 8.1 mph - N/A   Clear
10:54 PM 33.1 °F 24.9 °F 27.0 °F 78% 29.99 in 10.0 mi WNW 10.4 mph - N/A   Clear
11:54 PM 32.0 °F 23.6 °F 27.0 °F 82% 29.99 in 10.0 mi West 10.4 mph - N/A   Clear